EW4706 Weather Reports


Display with metric or nautical units.
time (UTC)temp
F
wind
direction
speed
MPH
gust
MPH
rain 1hr
in
rain 24hr
in
rain mn
in
humidity
%
barometer
mb
20260506221553 59 193 0.0 3.0 0.00 0.23 0.23 93 1009.6
20260506220044 59 165 0.0 6.0 0.00 0.23 0.23 93 1009.4
20260506214543 60 134 0.0 4.0 0.00 0.23 0.23 93 1009.1
20260506213042 59 209 1.0 6.0 0.00 0.23 0.23 92 1009.2
20260506211542 59 285 2.0 9.0 0.00 0.23 0.23 92 1009.1
20260506210044 59 254 4.0 11.0 0.00 0.23 0.23 92 1009.0
20260506204540 59 290 2.0 10.0 0.00 0.23 0.23 92 1008.8
20260506203039 59 265 2.0 12.0 0.01 0.23 0.23 93 1008.7
20260506201540 59 163 1.0 7.0 0.01 0.23 0.23 93 1008.8
20260506200044 59 162 1.0 10.0 0.03 0.23 0.23 93 1008.8
20260506194544 59 198 3.0 9.0 0.04 0.23 0.23 93 1008.9
20260506193033 59 207 1.0 7.0 0.05 0.22 0.22 93 1009.2
20260506191532 59 150 3.0 7.0 0.06 0.22 0.22 94 1009.5
20260506190032 59 209 3.0 8.0 0.06 0.20 0.20 93 1009.5
20260506184529 59 183 3.0 10.0 0.06 0.19 0.19 93 1009.6
20260506183034 59 174 2.0 8.0 0.04 0.17 0.17 93 1009.6
20260506181528 59 212 6.0 9.0 0.02 0.15 0.15 92 1009.6
20260506180027 59 212 3.0 11.0 0.01 0.14 0.14 92 1009.8
20260506174527 59 184 7.0 14.0 0.01 0.13 0.13 91 1009.9
20260506173025 59 152 4.0 13.0 0.02 0.13 0.13 92 1009.8
20260506171524 59 213 5.0 12.0 0.04 0.13 0.13 92 1009.8
20260506170022 59 173 5.0 17.0 0.07 0.13 0.13 92 1009.9
20260506164519 59 174 5.0 12.0 0.08 0.12 0.12 92 1009.8
20260506163017 59 160 5.0 12.0 0.07 0.11 0.11 91 1010.1
20260506161513 60 200 3.0 10.0 0.08 0.09 0.09 91 1010.7
20260506160016 60 183 3.0 14.0 0.06 0.06 0.06 89 1010.9
20260506154508 61 179 5.0 9.0 0.04 0.04 0.04 87 1011.1
20260506153006 61 204 4.0 8.0 0.03 0.03 0.03 87 1011.0
20260506151507 61 172 4.0 10.0 0.01 0.01 0.01 83 1011.0
20260506150004 63 192 6.0 8.0 0.00 0.00 0.00 79 1011.2
20260506144502 63 205 5.0 13.0 0.00 0.00 0.00 77 1011.2
20260506143002 63 187 3.0 10.0 0.00 0.00 0.00 77 1011.3
20260506141501 63 186 5.0 11.0 0.00 0.00 0.00 77 1011.1
20260506140100 63 172 4.0 12.0 0.00 0.00 0.00 77 1011.1
20260506134558 63 155 5.0 13.0 0.00 0.00 0.00 77 1011.1
20260506133106 63 186 4.0 13.0 0.00 0.00 0.00 77 1011.4
20260506131557 63 181 5.0 11.0 0.00 0.00 0.00 77 1011.5
20260506130056 63 209 4.0 13.0 0.00 0.00 0.00 77 1011.4
20260506124555 63 241 4.0 9.0 0.00 0.00 0.00 77 1011.3
20260506123055 62 155 5.0 10.0 0.00 0.00 0.00 78 1011.1
20260506121607 62 198 4.0 12.0 0.00 0.00 0.00 79 1011.3
20260506120118 62 180 5.0 13.0 0.00 0.00 0.00 80 1011.4
20260506114552 62 217 6.0 16.0 0.00 0.00 0.00 80 1011.5
20260506113054 61 168 4.0 10.0 0.00 0.00 0.00 80 1011.4
20260506111552 61 211 5.0 10.0 0.00 0.00 0.00 81 1011.3
20260506110054 61 179 7.0 14.0 0.00 0.00 0.00 81 1011.2
20260506104549 61 177 5.0 11.0 0.00 0.00 0.00 82 1011.1
20260506103052 61 167 6.0 13.0 0.00 0.00 0.00 82 1011.0
20260506101549 61 180 4.0 10.0 0.00 0.00 0.00 82 1011.2
20260506100045 61 166 6.0 12.0 0.00 0.00 0.00 82 1011.0
20260506094547 61 214 4.0 15.0 0.00 0.00 0.00 82 1011.0
20260506093048 61 160 6.0 12.0 0.00 0.00 0.00 82 1010.9
20260506091541 61 203 4.0 11.0 0.00 0.00 0.00 82 1011.1
20260506090037 61 199 5.0 11.0 0.00 0.00 0.00 81 1011.1
20260506084535 61 174 5.0 10.0 0.00 0.00 0.00 80 1011.2
20260506083036 61 159 5.0 12.0 0.00 0.00 0.00 79 1011.2
20260506081529 61 153 6.0 10.0 0.00 0.00 0.00 78 1011.4
20260506080128 62 213 6.0 12.0 0.00 0.00 0.00 76 1011.4
20260506073022 63 184 4.0 9.0 0.00 0.00 0.00 73 1011.5
20260506071522 63 193 4.0 14.0 0.00 0.00 0.00 72 1011.5
20260506061516 64 185 6.0 16.0 0.00 0.00 0.00 69 1012.0
20260506044604 65 216 4.0 11.0 0.00 0.00 0.00 66 1012.6
20260506043057 65 158 5.0 10.0 0.00 0.00 0.00 65 1012.4
20260506041557 65 150 6.0 13.0 0.00 0.00 0.00 64 1012.5
20260506040053 66 206 5.0 17.0 0.00 0.00 0.00 64 1012.5
20260506034552 66 185 6.0 14.0 0.00 0.00 0.00 64 1012.4
20260506033051 66 148 9.0 15.0 0.00 0.00 0.00 63 1012.4
20260506031559 67 168 6.0 12.0 0.00 0.00 0.00 62 1012.4
20260506030108 67 202 6.0 14.0 0.00 0.00 0.00 60 1012.4
20260506024548 68 146 7.0 14.0 0.00 0.00 0.00 57 1012.4
20260506023048 69 172 7.0 12.0 0.00 0.00 0.00 53 1012.3
20260506021549 69 159 7.0 17.0 0.00 0.00 0.00 52 1012.2
20260506020047 70 200 7.0 18.0 0.00 0.00 0.00 50 1012.2
20260506014548 70 169 7.0 13.0 0.00 0.00 0.00 50 1012.1
20260506013047 71 189 6.0 12.0 0.00 0.00 0.00 49 1011.9
20260506011553 71 170 5.0 14.0 0.00 0.00 0.00 48 1011.9
20260506010045 72 151 6.0 11.0 0.00 0.00 0.00 47 1011.6
20260506004620 72 210 5.0 13.0 0.00 0.00 0.00 44 1011.6
20260506003043 73 176 4.0 12.0 0.00 0.00 0.00 43 1011.5
20260506001543 73 167 4.0 9.0 0.00 0.00 0.00 41 1011.3
20260506000045 74 157 2.0 11.0 0.00 0.00 0.00 41 1011.2
20260505234606 74 146 5.0 15.0 0.00 0.00 0.00 40 1011.1
20260505233040 74 152 6.0 12.0 0.00 0.00 0.00 39 1011.2
20260505231540 75 197 3.0 9.0 0.00 0.00 0.00 38 1011.1
20260505230039 75 143 6.0 13.0 0.00 0.00 0.00 37 1010.9
20260505224538 75 212 4.0 11.0 0.00 0.00 0.00 37 1010.7
20260505223052 76 211 4.0 17.0 0.00 0.00 0.00 36 1010.6